Preston, MN

1:21 PM CDT on June 26, 2017 (GMT -0500)
Preston

Weather History for KFKA - April, 2013

Change the Weather History Date:

Thursday, April 18, 2013

  Actual Average (KRST) Record (KRST)
Temperature  
Mean Temperature 36 °F -  
Max Temperature 39 °F 59 °F 89 °F (1985)
Min Temperature 33 °F 37 °F 16 °F (1983)
Degree Days  
Heating Degree Days 29    
Moisture  
Dew Point 32 °F    
Average Humidity 80    
Maximum Humidity 83    
Minimum Humidity 78    
Precipitation  
Precipitation 0.14 in - - ()
Sea Level Pressure  
Sea Level Pressure 29.55 in    
Wind  
Wind Speed 12 mph (North)    
Max Wind Speed 23 mph    
Max Gust Speed 32 mph    
Visibility 4 miles    
Events Rain , Snow , Thunderstorm    
Averages and records for this station are not official NWS values.
T = Trace of Precipitation, MM = Missing Value Source: NWS Daily Summary

Daily Weather History Graph

Daily Weather History Graph

Search for Another Location

Airport or City:

Trip Planner

Search our weather history database for the weather conditions in past years. The results will help you decide how hot, cold, wet, or windy it might be!

Date:

Astronomy

Apr. 18, 2013 Rise Set
Actual Time 6:20 AM CDT 7:56 PM CDT
Civil Twilight 5:50 AM CDT 8:26 PM CDT
Nautical Twilight 5:13 AM CDT 9:03 PM CDT
Astronomical Twilight 4:34 AM CDT 9:42 PM CDT
Moon 12:30 PM CDT (4/18) 2:13 AM CDT (4/18)
Length of Visible Light 14h 36m
Length of Day
13h 35m
First Quarter, 52% of the Moon is Illuminated
Apr 18
First Quarter
Apr 25
Full
May 2
Last Quarter
May 9
New
May 17
First Quarter

Hourly Weather History & Observations

Time (CDT) Temp. Windchill Dew Point Humidity Pressure Visibility Wind Dir Wind Speed Gust Speed Precip Events Conditions
12:13 AM 38.3 °F 31.9 °F 32.5 °F 80% 29.79 in 10.0 mi NNE 9.2 mph 16.1 mph N/A   Overcast
12:33 AM 37.9 °F 30.0 °F 32.2 °F 80% 29.78 in 10.0 mi NNE 12.7 mph - N/A   Overcast
12:53 AM 37.8 °F 29.8 °F 32.2 °F 80% 29.77 in 10.0 mi NNE 12.7 mph 17.3 mph N/A   Overcast
1:14 AM 37.8 °F 29.8 °F 32.2 °F 80% 29.76 in 10.0 mi NNE 12.7 mph 19.6 mph N/A   Overcast
1:33 AM 37.8 °F 29.4 °F 32.2 °F 80% 29.75 in 5.0 mi NNE 13.8 mph - N/A   Haze
1:53 AM 37.8 °F 29.8 °F 32.2 °F 80% 29.72 in 2.5 mi NNE 12.7 mph - N/A   Haze
2:13 AM 37.6 °F 29.1 °F 32.0 °F 80% 29.72 in 2.0 mi NNE 13.8 mph 19.6 mph N/A   Haze
2:33 AM 37.6 °F 28.8 °F 32.2 °F 81% 29.74 in 2.5 mi NNE 15.0 mph 21.9 mph N/A   Haze
2:53 AM 38.3 °F 30.9 °F 32.9 °F 81% 29.73 in 5.0 mi NE 11.5 mph 18.4 mph N/A   Haze
3:13 AM 38.3 °F 31.9 °F 32.9 °F 81% 29.72 in 4.0 mi NE 9.2 mph - N/A   Haze
3:33 AM 38.3 °F 32.5 °F 32.5 °F 80% 29.71 in 1.8 mi NNE 8.1 mph - N/A   Haze
3:54 AM 37.8 °F 32.5 °F 32.4 °F 81% 29.69 in 1.5 mi North 6.9 mph - N/A   Drizzle
4:33 AM 37.6 °F 31.6 °F 32.4 °F 81% 29.67 in 2.5 mi North 8.1 mph - 0.01 in   Light Drizzle
4:53 AM 37.4 °F 30.8 °F 32.2 °F 81% 29.68 in 4.0 mi North 9.2 mph - 0.01 in   Haze
5:14 AM 37.4 °F 29.8 °F 32.0 °F 81% 29.67 in 5.0 mi North 11.5 mph - N/A   Haze
5:33 AM 37.4 °F 30.3 °F 32.0 °F 81% 29.68 in 7.0 mi North 10.4 mph - N/A   Overcast
5:53 AM 37.4 °F 29.8 °F 32.0 °F 81% 29.68 in 5.0 mi North 11.5 mph - N/A   Haze
6:13 AM 37.0 °F 28.9 °F 32.0 °F 82% 29.69 in 4.0 mi North 12.7 mph - N/A   Haze
6:33 AM 36.9 °F 28.7 °F 32.0 °F 83% 29.69 in 3.0 mi North 12.7 mph 19.6 mph N/A   Haze
6:53 AM 36.9 °F 27.8 °F 32.0 °F 83% 29.69 in 3.0 mi North 15.0 mph 20.7 mph N/A   Haze
7:13 AM 36.9 °F 28.2 °F 32.0 °F 83% 29.67 in 1.8 mi NNE 13.8 mph 18.4 mph N/A   Haze
7:33 AM 36.9 °F 28.2 °F 32.0 °F 83% 29.62 in 3.0 mi NE 13.8 mph 21.9 mph N/A   Haze
7:54 AM 36.9 °F 27.5 °F 32.0 °F 83% 29.61 in 7.0 mi NNE 16.1 mph 24.2 mph N/A   Overcast
8:14 AM 37.4 °F 29.8 °F 32.0 °F 81% 29.61 in 10.0 mi NE 11.5 mph 18.4 mph N/A   Overcast
8:34 AM 37.6 °F 29.6 °F 32.4 °F 81% 29.60 in 10.0 mi NNE 12.7 mph 17.3 mph N/A   Overcast
8:54 AM 37.8 °F 31.8 °F 32.5 °F 81% 29.62 in 7.0 mi NNE 8.1 mph 16.1 mph N/A   Overcast
9:14 AM 38.3 °F 30.9 °F 32.9 °F 81% 29.60 in 10.0 mi NNE 11.5 mph - N/A   Overcast
9:34 AM 38.3 °F 30.9 °F 32.9 °F 81% 29.58 in 10.0 mi NNE 11.5 mph - N/A   Overcast
9:53 AM 38.3 °F 33.2 °F 32.9 °F 81% 29.60 in 10.0 mi NNE 6.9 mph - N/A   Overcast
10:34 AM 38.5 °F 31.6 °F 32.9 °F 80% 29.58 in 10.0 mi NNE 10.4 mph - N/A   Overcast
10:54 AM 38.3 °F 30.9 °F 32.9 °F 81% 29.55 in 10.0 mi NNE 11.5 mph 16.1 mph N/A   Overcast
11:14 AM 38.5 °F 31.6 °F 33.1 °F 81% 29.57 in 10.0 mi NNE 10.4 mph - N/A   Overcast
11:34 AM 38.5 °F 31.6 °F 32.9 °F 80% 29.56 in 10.0 mi NNE 10.4 mph 18.4 mph N/A   Overcast
11:54 AM 38.7 °F 30.5 °F 33.1 °F 80% 29.53 in 10.0 mi NNE 13.8 mph 20.7 mph N/A   Overcast
12:13 PM 38.7 °F 30.5 °F 33.1 °F 80% 29.51 in 10.0 mi NNE 13.8 mph 20.7 mph N/A   Overcast
12:54 PM 38.5 °F 30.7 °F 32.9 °F 80% 29.49 in 1.0 mi NNE 12.7 mph 21.9 mph N/A Rain , Thunderstorm Light Thunderstorms and Rain
1:14 PM 38.7 °F 31.4 °F 33.1 °F 80% 29.48 in 3.0 mi NNE 11.5 mph - 0.02 in Rain Rain
1:34 PM 38.7 °F 31.4 °F 33.3 °F 81% 29.48 in 1.2 mi North 11.5 mph - 0.06 in Rain Rain
1:54 PM 39.0 °F 31.4 °F 33.6 °F 81% 29.46 in 1.8 mi NNE 12.7 mph 17.3 mph 0.08 in Rain Light Rain
2:14 PM 39.2 °F 33.0 °F 33.8 °F 81% 29.46 in 2.0 mi NNE 9.2 mph - 0.01 in Rain Light Rain
2:33 PM 39.4 °F 31.4 °F 34.0 °F 81% 29.45 in 2.0 mi NNE 13.8 mph 17.3 mph 0.02 in   Drizzle
2:54 PM 39.6 °F 33.5 °F 34.0 °F 80% 29.46 in 2.5 mi North 9.2 mph - 0.03 in   Drizzle
3:14 PM 39.6 °F 33.5 °F 34.0 °F 80% 29.46 in 3.0 mi North 9.2 mph - 0.01 in Rain Light Rain
3:34 PM 39.7 °F 33.2 °F 34.2 °F 80% 29.44 in 3.0 mi NNE 10.4 mph - 0.02 in Rain Light Rain
3:54 PM 39.4 °F 33.2 °F 33.6 °F 80% 29.44 in 1.8 mi North 9.2 mph - 0.02 in Thunderstorm Haze
4:14 PM 39.7 °F 33.2 °F 34.0 °F 80% 29.42 in 1.5 mi North 10.4 mph 17.3 mph N/A   Light Drizzle
4:34 PM 39.2 °F 32.5 °F 33.3 °F 79% 29.42 in 1.8 mi North 10.4 mph 18.4 mph N/A   Haze
4:54 PM 39.2 °F 30.8 °F 33.3 °F 79% 29.39 in 1.2 mi NNW 15.0 mph 19.6 mph N/A   Haze
5:14 PM 39.2 °F 31.6 °F 33.3 °F 79% 29.40 in 1.8 mi North 12.7 mph 18.4 mph N/A   Haze
5:34 PM 38.8 °F 31.2 °F 33.1 °F 80% 29.40 in 2.0 mi NNW 12.7 mph - N/A   Haze
5:53 PM 38.8 °F 32.1 °F 32.9 °F 79% 29.40 in 1.8 mi NNW 10.4 mph - N/A   Haze
6:14 PM 38.7 °F 30.9 °F 32.9 °F 80% 29.41 in 2.0 mi NNW 12.7 mph - N/A   Haze
6:34 PM 38.3 °F 31.4 °F 32.4 °F 79% 29.41 in 1.8 mi NNW 10.4 mph 17.3 mph N/A   Haze
6:54 PM 37.9 °F 30.0 °F 32.2 °F 80% 29.42 in 1.2 mi NW 12.7 mph - N/A   Haze
7:14 PM 37.4 °F 30.3 °F 32.0 °F 81% 29.41 in 1.2 mi NNW 10.4 mph - N/A   Light Drizzle
7:33 PM 36.9 °F 27.5 °F 31.5 °F 81% 29.41 in 1.5 mi WNW 16.1 mph - N/A Rain Light Rain
7:53 PM 35.2 °F 25.8 °F 30.2 °F 82% 29.43 in 1.2 mi WNW 15.0 mph 21.9 mph N/A Snow Light Snow
8:13 PM 35.1 °F 25.5 °F 30.2 °F 82% 29.43 in 1.5 mi NW 15.0 mph - N/A Snow Light Snow
8:33 PM 34.9 °F 23.6 °F 29.8 °F 82% 29.44 in 5.0 mi WNW 20.7 mph 25.3 mph N/A   Haze
8:53 PM 34.7 °F 24.3 °F 29.3 °F 81% 29.45 in 7.0 mi NW 17.3 mph 24.2 mph N/A   Overcast
9:13 PM 34.7 °F 23.4 °F 28.9 °F 79% 29.45 in 5.0 mi NW 20.7 mph 26.5 mph N/A   Haze
9:34 PM 34.7 °F 24.3 °F 28.8 °F 79% 29.45 in 5.0 mi NW 17.3 mph 27.6 mph N/A   Haze
9:54 PM 34.7 °F 24.7 °F 28.9 °F 79% 29.45 in 3.0 mi WNW 16.1 mph 21.9 mph N/A   Haze
10:33 PM 34.3 °F 23.9 °F 28.8 °F 80% 29.45 in 2.5 mi WNW 17.3 mph 25.3 mph N/A   Haze
10:54 PM 34.2 °F 22.3 °F 28.4 °F 79% 29.44 in 2.5 mi WNW 21.9 mph 26.5 mph N/A   Haze
11:13 PM 34.0 °F 21.8 °F 28.2 °F 79% 29.43 in 3.0 mi NW 23.0 mph 32.2 mph N/A   Haze
11:34 PM 33.8 °F 22.5 °F 28.0 °F 79% 29.43 in 3.0 mi NW 19.6 mph 29.9 mph N/A   Haze
11:54 PM 33.8 °F 21.9 °F 27.5 °F 78% 29.43 in 4.0 mi NW 21.9 mph 28.8 mph N/A   Haze